Location: Unspecified
(0.0000°N, 0.0000°E)
Time: 06:32:25
(UTC+00:00)

deb Explorer IX - All Passes

Search period start: 20 October 2021 00:00
Search period end: 30 October 2021 00:00
Orbit: 546 x 1088 km, 38.8° (Epoch: 19 October)

Date Brightness Start Highest point End Pass type
(mag) Time Alt. Az. Time Alt. Az. Time Alt. Az.
20 Oct - 01:25:16 10° WSW 01:32:11 47° NW 01:38:43 10° NNE night (unlit)
20 Oct - 12:21:44 10° NW 12:25:48 73° NE 12:29:59 10° SE daylight
20 Oct - 14:11:56 10° SW 14:12:34 10° SW 14:13:11 10° SSW daylight
20 Oct - 23:13:43 10° SSW 23:20:13 38° SE 23:26:46 10° ENE night (unlit)
21 Oct - 01:00:36 10° WSW 01:07:31 48° NW 01:14:10 10° NNE night (unlit)
21 Oct - 11:57:19 10° NW 12:01:25 73° NE 12:05:33 10° SE daylight
21 Oct - 22:49:08 10° SSW 22:55:33 37° SE 23:02:07 10° ENE night (unlit)
22 Oct - 00:35:56 10° WSW 00:42:51 48° NW 00:49:37 10° NNE night (unlit)
22 Oct - 11:32:53 10° NW 11:37:02 72° NE 11:41:07 10° SE daylight
22 Oct - 22:24:34 10° SSW 22:30:53 36° SE 22:37:25 10° ENE night (unlit)
23 Oct - 00:11:17 10° WSW 00:18:10 49° NW 00:25:00 10° NNE night (unlit)
23 Oct - 11:08:25 10° NW 11:12:37 71° NE 11:16:42 10° SE daylight
23 Oct - 22:00:01 10° SSW 22:06:12 36° SE 22:12:42 10° ENE night (unlit)
23 Oct - 23:46:38 10° WSW 23:53:27 49° NW 00:00:22 10° NNE night (unlit)
24 Oct - 10:43:55 10° NW 10:48:12 71° NE 10:52:16 10° SE daylight
24 Oct - 21:35:29 10° SSW 21:41:30 35° SE 21:47:57 10° ENE night (unlit)
24 Oct - 23:22:00 10° WSW 23:28:45 50° NW 23:35:42 10° NNE night (unlit)
25 Oct - 10:19:22 10° NW 10:23:46 70° NE 10:27:52 10° SE daylight
25 Oct - 21:10:57 10° SSW 21:16:50 34° SE 21:23:10 10° ENE visible
25 Oct - 22:57:22 10° WSW 23:04:02 50° NW 23:11:00 10° NNE night (unlit)
26 Oct - 09:54:47 10° NW 09:59:19 70° NE 10:03:27 10° SE daylight
26 Oct - 11:45:29 10° SW 11:45:50 10° SW 11:46:10 10° SW daylight
26 Oct - 20:46:27 10° SSW 20:52:09 33° SE 20:58:22 10° ENE visible
26 Oct - 22:32:45 10° WSW 22:39:18 50° NW 22:46:17 10° NNE night (unlit)
27 Oct - 00:26:29 10° NW 00:27:08 10° NW 00:27:46 10° NNW night (unlit)
27 Oct - 09:30:11 10° NW 09:34:51 69° NE 09:39:02 10° SE daylight
27 Oct - 11:20:34 10° SW 11:21:20 10° SW 11:22:06 10° SSW daylight
27 Oct - 20:21:57 10° SSW 20:27:28 32° SE 20:33:32 10° ENE visible
27 Oct - 22:08:09 10° WSW 22:14:35 50° NW 22:21:31 10° NNE night (unlit)
28 Oct - 00:01:36 10° NW 00:02:25 10° NW 00:03:16 10° NNW night (unlit)
28 Oct - 09:05:32 10° NW 09:10:21 69° NE 09:14:38 10° SE daylight
28 Oct - 10:55:43 10° SW 10:56:50 11° SW 10:57:56 10° SSW daylight
28 Oct - 19:57:26 10° SSW 20:02:46 31° SE 20:08:42 10° ENE visible
28 Oct - 21:43:34 10° WSW 21:49:51 50° NW 21:56:45 10° NNE visible
28 Oct - 23:36:51 10° NW 23:37:43 10° NW 23:38:34 10° NNW night (unlit)
29 Oct - 08:40:50 10° NW 08:45:50 69° NE 08:50:12 10° SE daylight
29 Oct - 10:30:53 10° WSW 10:32:19 11° SW 10:33:43 10° SSW daylight
29 Oct - 19:32:58 10° SSW 19:38:06 30° SE 19:43:50 10° ENE visible
29 Oct - 21:18:59 10° WSW 21:25:07 50° NW 21:31:57 10° NE visible
29 Oct - 23:12:14 10° NW 23:13:00 10° NW 23:13:45 10° NNW night (unlit)
